QPF
0.00 0.00 0.00 0.00 0.00 0.00 0.00 0.00 0.00 0.00 0.01 0.01 0.00 0.00 0.00 0.00 0.01 0.01 0.01 0.01 0.01 0.01 0.00 0.00 0.00 0.00 0.00 0.00 0.00 0.00 0.00 0.01 0.01 0.00 0.01 0.01 0.01 0.00 0.00 0.03 0.06 0.02 0.00
0.00 0.00 0.00 0.00 0.00 0.00 0.00 0.00 0.00 0.00 0.01 0.01 0.00 0.00 0.00 0.00 0.01 0.01 0.01 0.01 0.01 0.01 0.00 0.00 0.00 0.00 0.00 0.00 0.00 0.00 0.01 0.01 0.01 0.00 0.01 0.01 0.01 0.00 0.00 0.02 0.03 0.02 0.00
0.00 0.00 0.00 0.00 0.00 0.00 0.00 0.00 0.00 0.00 0.00 0.00 0.00 0.00 0.00 0.00 0.00 0.01 0.01 0.01 0.01 0.01 0.02 0.01 0.01 0.01 0.02 0.01 0.01 0.01 0.02 0.01 0.00 0.00 0.00 0.00 0.00 0.00 0.00 0.00 0.01 0.01 0.00
0.00 0.00 0.00 0.00 0.00 0.00 0.00 0.00 0.00 0.00 0.00 0.00 0.00 0.00 0.00 0.00 0.00 0.00 0.01 0.03 0.05 0.08 0.09 0.08 0.05 0.06 0.06 0.05 0.05 0.03 0.06 0.03 0.00 0.00 0.00 0.00 0.00 0.00 0.00 0.00 0.00 0.00 0.00
0.00 0.00 0.00 0.00 0.00 0.00 0.01 0.00 0.00 0.01 0.01 0.00 0.01 0.00 0.00 0.00 0.00 0.00 0.00 0.02 0.07 0.12 0.14 0.16 0.12 0.10 0.09 0.09 0.06 0.06 0.09 0.05 0.01 0.00 0.00 0.00 0.00 0.00 0.00 0.00 0.00 0.00 0.00
0.00 0.00 0.00 0.00 0.00 0.00 0.01 0.00 0.00 0.01 0.01 0.01 0.01 0.01 0.01 0.01 0.00 0.00 0.00 0.01 0.03 0.08 0.12 0.14 0.13 0.12 0.13 0.10 0.06 0.06 0.09 0.07 0.02 0.00 0.00 0.00 0.01 0.03 0.03 0.01 0.00 0.00 0.00
0.00 0.00 0.01 0.01 0.01 0.00 0.00 0.00 0.00 0.01 0.01 0.01 0.02 0.01 0.01 0.02 0.02 0.01 0.01 0.01 0.01 0.02 0.06 0.10 0.12 0.13 0.13 0.11 0.07 0.07 0.12 0.09 0.02 0.00 0.00 0.00 0.03 0.14 0.12 0.03 0.00 0.00 0.00
0.00 0.00 0.01 0.02 0.02 0.02 0.01 0.01 0.01 0.01 0.01 0.01 0.02 0.01 0.01 0.02 0.03 0.02 0.02 0.02 0.01 0.00 0.01 0.04 0.08 0.10 0.11 0.10 0.09 0.08 0.11 0.07 0.02 0.00 0.00 0.00 0.04 0.18 0.18 0.07 0.01 0.00 0.00
0.00 0.00 0.00 0.00 0.01 0.01 0.02 0.03 0.02 0.02 0.02 0.02 0.01 0.01 0.02 0.02 0.03 0.05 0.06 0.04 0.03 0.01 0.01 0.01 0.01 0.03 0.05 0.07 0.08 0.08 0.07 0.04 0.01 0.00 0.00 0.00 0.04 0.20 0.22 0.11 0.03 0.01 0.00
0.00 0.00 0.00 0.00 0.00 0.00 0.01 0.03 0.05 0.04 0.03 0.03 0.02 0.02 0.02 0.02 0.03 0.05 0.06 0.05 0.03 0.02 0.01 0.01 0.01 0.01 0.01 0.02 0.04 0.04 0.04 0.02 0.00 0.00 0.00 0.00 0.03 0.18 0.22 0.15 0.05 0.01 0.00
0.00 0.00 0.00 0.00 0.00 0.00 0.00 0.02 0.04 0.05 0.05 0.04 0.04 0.04 0.04 0.02 0.01 0.01 0.02 0.03 0.03 0.02 0.01 0.01 0.01 0.01 0.00 0.00 0.01 0.01 0.01 0.01 0.00 0.00 0.00 0.00 0.04 0.19 0.24 0.19 0.09 0.02 0.00
0.00 0.00 0.00 0.00 0.00 0.00 0.00 0.01 0.03 0.03 0.03 0.04 0.05 0.06 0.06 0.05 0.03 0.03 0.02 0.02 0.03 0.04 0.03 0.02 0.02 0.01 0.01 0.00 0.00 0.00 0.00 0.00 0.00 0.00 0.00 0.00 0.04 0.18 0.25 0.24 0.17 0.06 0.01
0.00 0.00 0.00 0.00 0.00 0.00 0.00 0.01 0.01 0.02 0.02 0.03 0.05 0.07 0.07 0.07 0.07 0.08 0.08 0.09 0.09 0.08 0.06 0.04 0.04 0.02 0.01 0.00 0.00 0.00 0.00 0.00 0.00 0.00 0.00 0.00 0.01 0.07 0.17 0.21 0.17 0.09 0.03
0.00 0.00 0.00 0.00 0.00 0.00 0.00 0.00 0.00 0.00 0.01 0.01 0.03 0.05 0.05 0.06 0.08 0.13 0.17 0.22 0.23 0.22 0.18 0.12 0.07 0.04 0.02 0.01 0.00 0.00 0.00 0.00 0.00 0.00 0.00 0.00 0.00 0.01 0.06 0.14 0.16 0.13 0.06
0.00 0.00 0.00 0.00 0.00 0.00 0.00 0.00 0.00 0.00 0.00 0.00 0.01 0.02 0.02 0.03 0.04 0.06 0.07 0.09 0.11 0.12 0.12 0.12 0.09 0.06 0.04 0.02 0.01 0.00 0.00 0.00 0.00 0.00 0.00 0.00 0.00 0.00 0.02 0.06 0.12 0.14 0.12
0.00 0.00 0.00 0.00 0.00 0.00 0.00 0.00 0.00 0.00 0.00 0.00 0.00 0.00 0.01 0.01 0.01 0.01 0.01 0.01 0.01 0.02 0.02 0.02 0.02 0.02 0.01 0.01 0.00 0.00 0.00 0.00 0.00 0.00 0.00 0.00 0.00 0.00 0.02 0.04 0.08 0.12 0.14
0.00 0.00 0.00 0.00 0.00 0.00 0.00 0.00 0.00 0.00 0.00 0.00 0.00 0.00 0.00 0.00 0.00 0.00 0.00 0.00 0.00 0.00 0.00 0.00 0.00 0.00 0.00 0.00 0.00 0.00 0.00 0.00 0.00 0.00 0.00 0.00 0.00 0.01 0.01 0.04 0.07 0.10 0.16
0.00 0.00 0.00 0.00 0.00 0.00 0.00 0.00 0.00 0.00 0.00 0.00 0.00 0.00 0.00 0.00 0.00 0.00 0.00 0.00 0.00 0.00 0.00 0.00 0.00 0.00 0.00 0.00 0.00 0.00 0.00 0.00 0.00 0.00 0.00 0.00 0.01 0.01 0.01 0.03 0.08 0.10 0.14
0.00 0.00 0.00 0.00 0.00 0.00 0.00 0.00 0.00 0.00 0.00 0.00 0.00 0.00 0.00 0.00 0.00 0.00 0.00 0.00 0.00 0.00 0.00 0.00 0.00 0.00 0.00 0.00 0.00 0.00 0.00 0.00 0.00 0.01 0.01 0.01 0.01 0.01 0.02 0.02 0.05 0.10 0.12
0.00 0.00 0.00 0.00 0.00 0.00 0.00 0.00 0.00 0.00 0.00 0.00 0.00 0.00 0.00 0.00 0.00 0.00 0.00 0.00 0.00 0.00 0.00 0.00 0.00 0.00 0.00 0.00 0.00 0.00 0.00 0.00 0.00 0.01 0.02 0.03 0.03 0.03 0.03 0.03 0.04 0.04 0.07
0.00 0.00 0.00 0.00 0.00 0.00 0.00 0.00 0.00 0.00 0.00 0.00 0.00 0.00 0.00 0.00 0.00 0.00 0.00 0.00 0.00 0.00 0.00 0.00 0.00 0.00 0.00 0.00 0.00 0.00 0.00 0.00 0.00 0.00 0.01 0.02 0.03 0.04 0.04 0.04 0.05 0.05 0.05
0.00 0.00 0.00 0.00 0.00 0.00 0.00 0.00 0.00 0.00 0.00 0.00 0.00 0.00 0.00 0.00 0.00 0.00 0.00 0.00 0.00 0.00 0.00 0.00 0.00 0.00 0.00 0.00 0.01 0.01 0.00 0.00 0.00 0.00 0.00 0.00 0.02 0.03 0.04 0.04 0.05 0.06 0.06
0.00 0.00 0.00 0.00 0.00 0.00 0.00 0.00 0.00 0.00 0.00 0.00 0.00 0.00 0.00 0.00 0.00 0.00 0.00 0.00 0.00 0.00 0.00 0.00 0.00 0.00 0.00 0.00 0.01 0.02 0.01 0.00 0.00 0.00 0.00 0.00 0.01 0.02 0.02 0.03 0.04 0.04 0.06
0.00 0.00 0.00 0.00 0.00 0.00 0.00 0.00 0.00 0.00 0.00 0.00 0.00 0.00 0.00 0.00 0.00 0.00 0.00 0.00 0.00 0.00 0.00 0.00 0.01 0.01 0.01 0.01 0.01 0.02 0.02 0.00 0.00 0.00 0.00 0.00 0.01 0.01 0.02 0.02 0.02 0.03 0.05
0.00 0.00 0.00 0.00 0.00 0.00 0.00 0.00 0.00 0.00 0.00 0.00 0.00 0.00 0.00 0.00 0.00 0.00 0.00 0.00 0.00 0.00 0.00 0.01 0.01 0.02 0.03 0.03 0.03 0.03 0.03 0.02 0.01 0.00 0.00 0.00 0.00 0.01 0.01 0.01 0.02 0.03 0.04
0.00 0.00 0.00 0.00 0.00 0.00 0.00 0.00 0.00 0.00 0.00 0.00 0.00 0.00 0.00 0.00 0.00 0.00 0.00 0.00 0.00 0.00 0.00 0.01 0.02 0.03 0.04 0.04 0.04 0.04 0.03 0.02 0.01 0.00 0.00 0.00 0.00 0.00 0.01 0.01 0.01 0.02 0.03
MSLP
1014.28 1013.77 1013.44 1013.33 1013.43 1013.66 1013.94 1014.18 1014.33 1014.36 1014.27 1014.12 1013.96 1013.85 1013.82 1013.86 1013.97 1014.10 1014.22 1014.29 1014.30 1014.27 1014.23 1014.21 1014.22 1014.29 1014.39 1014.50 1014.60 1014.66 1014.67 1014.64 1014.60 1014.58 1014.59 1014.64 1014.74 1014.86 1014.98 1015.08 1015.16 1015.21 1015.24
1014.47 1013.96 1013.64 1013.53 1013.62 1013.84 1014.11 1014.35 1014.51 1014.54 1014.48 1014.36 1014.24 1014.16 1014.15 1014.21 1014.31 1014.42 1014.49 1014.51 1014.47 1014.39 1014.31 1014.25 1014.25 1014.30 1014.39 1014.50 1014.59 1014.65 1014.67 1014.66 1014.64 1014.63 1014.66 1014.73 1014.84 1014.96 1015.07 1015.16 1015.23 1015.26 1015.30
1014.62 1014.14 1013.82 1013.70 1013.78 1013.98 1014.23 1014.46 1014.61 1014.66 1014.62 1014.54 1014.45 1014.41 1014.42 1014.49 1014.58 1014.66 1014.69 1014.65 1014.55 1014.42 1014.30 1014.21 1014.18 1014.22 1014.30 1014.41 1014.51 1014.59 1014.63 1014.65 1014.67 1014.70 1014.76 1014.85 1014.97 1015.09 1015.19 1015.27 1015.32 1015.35 1015.38
1014.81 1014.33 1014.02 1013.90 1013.95 1014.12 1014.34 1014.53 1014.66 1014.70 1014.66 1014.59 1014.54 1014.52 1014.56 1014.63 1014.71 1014.76 1014.75 1014.67 1014.54 1014.37 1014.21 1014.09 1014.05 1014.08 1014.17 1014.28 1014.40 1014.50 1014.58 1014.64 1014.69 1014.76 1014.85 1014.97 1015.10 1015.22 1015.31 1015.38 1015.42 1015.45 1015.48
1015.08 1014.62 1014.30 1014.16 1014.18 1014.31 1014.47 1014.61 1014.68 1014.67 1014.61 1014.53 1014.48 1014.47 1014.51 1014.59 1014.66 1014.71 1014.68 1014.58 1014.42 1014.23 1014.07 1013.95 1013.90 1013.93 1014.02 1014.15 1014.28 1014.41 1014.51 1014.61 1014.70 1014.80 1014.92 1015.05 1015.18 1015.30 1015.39 1015.46 1015.49 1015.52 1015.57
1015.52 1015.06 1014.73 1014.57 1014.55 1014.60 1014.68 1014.73 1014.71 1014.63 1014.51 1014.39 1014.30 1014.28 1014.31 1014.39 1014.46 1014.50 1014.47 1014.38 1014.23 1014.06 1013.91 1013.80 1013.77 1013.81 1013.91 1014.04 1014.19 1014.32 1014.44 1014.56 1014.67 1014.79 1014.92 1015.06 1015.20 1015.31 1015.40 1015.46 1015.51 1015.55 1015.61
1016.16 1015.69 1015.35 1015.16 1015.08 1015.05 1015.03 1014.96 1014.82 1014.63 1014.42 1014.23 1014.09 1014.03 1014.04 1014.10 1014.16 1014.20 1014.19 1014.12 1014.01 1013.88 1013.76 1013.69 1013.69 1013.74 1013.85 1013.98 1014.12 1014.26 1014.37 1014.49 1014.60 1014.72 1014.85 1014.98 1015.11 1015.23 1015.31 1015.38 1015.44 1015.50 1015.59
1017.01 1016.52 1016.17 1015.94 1015.79 1015.67 1015.53 1015.33 1015.07 1014.76 1014.44 1014.15 1013.94 1013.82 1013.79 1013.82 1013.86 1013.91 1013.91 1013.86 1013.79 1013.71 1013.65 1013.62 1013.65 1013.72 1013.84 1013.96 1014.09 1014.20 1014.30 1014.39 1014.49 1014.59 1014.70 1014.82 1014.94 1015.05 1015.14 1015.22 1015.29 1015.38 1015.50
1018.02 1017.53 1017.16 1016.89 1016.68 1016.46 1016.21 1015.88 1015.49 1015.06 1014.63 1014.26 1013.97 1013.78 1013.68 1013.66 1013.67 1013.69 1013.68 1013.66 1013.61 1013.57 1013.55 1013.57 1013.63 1013.73 1013.84 1013.96 1014.07 1014.15 1014.22 1014.29 1014.35 1014.42 1014.51 1014.61 1014.71 1014.80 1014.90 1014.98 1015.08 1015.20 1015.35
1019.14 1018.65 1018.27 1017.97 1017.69 1017.39 1017.02 1016.59 1016.09 1015.56 1015.04 1014.59 1014.23 1013.97 1013.80 1013.71 1013.65 1013.61 1013.57 1013.53 1013.48 1013.46 1013.47 1013.51 1013.60 1013.71 1013.83 1013.95 1014.04 1014.10 1014.15 1014.18 1014.21 1014.25 1014.30 1014.37 1014.45 1014.53 1014.62 1014.72 1014.84 1014.98 1015.16
1020.29 1019.82 1019.44 1019.10 1018.77 1018.39 1017.93 1017.41 1016.83 1016.23 1015.66 1015.15 1014.74 1014.41 1014.17 1013.99 1013.84 1013.71 1013.60 1013.49 1013.41 1013.37 1013.37 1013.42 1013.52 1013.65 1013.78 1013.89 1013.98 1014.03 1014.06 1014.07 1014.08 1014.09 1014.11 1014.15 1014.20 1014.27 1014.35 1014.45 1014.58 1014.74 1014.95
1021.43 1020.99 1020.62 1020.26 1019.86 1019.41 1018.88 1018.29 1017.66 1017.03 1016.44 1015.91 1015.46 1015.08 1014.76 1014.49 1014.23 1013.98 1013.75 1013.55 1013.39 1013.29 1013.26 1013.29 1013.39 1013.51 1013.65 1013.77 1013.87 1013.93 1013.96 1013.96 1013.96 1013.95 1013.95 1013.96 1013.98 1014.03 1014.09 1014.18 1014.31 1014.49 1014.71
1022.53 1022.14 1021.77 1021.38 1020.93 1020.40 1019.81 1019.17 1018.51 1017.88 1017.29 1016.77 1016.31 1015.90 1015.52 1015.15 1014.77 1014.39 1014.02 1013.69 1013.42 1013.23 1013.13 1013.12 1013.19 1013.31 1013.45 1013.59 1013.70 1013.78 1013.82 1013.84 1013.83 1013.82 1013.80 1013.78 1013.78 1013.79 1013.83 1013.91 1014.03 1014.21 1014.44
1023.59 1023.25 1022.87 1022.44 1021.92 1021.32 1020.66 1019.98 1019.32 1018.70 1018.14 1017.65 1017.21 1016.78 1016.35 1015.89 1015.39 1014.88 1014.37 1013.90 1013.50 1013.20 1013.02 1012.95 1012.97 1013.06 1013.19 1013.33 1013.46 1013.55 1013.62 1013.66 1013.67 1013.65 1013.62 1013.58 1013.54 1013.53 1013.54 1013.59 1013.70 1013.88 1014.12
1024.62 1024.30 1023.91 1023.41 1022.82 1022.14 1021.42 1020.70 1020.03 1019.44 1018.92 1018.47 1018.05 1017.62 1017.15 1016.63 1016.04 1015.41 1014.77 1014.17 1013.65 1013.24 1012.96 1012.80 1012.75 1012.80 1012.89 1013.02 1013.15 1013.26 1013.34 1013.40 1013.42 1013.41 1013.37 1013.31 1013.25 1013.20 1013.18 1013.21 1013.31 1013.48 1013.73
1025.60 1025.28 1024.85 1024.29 1023.61 1022.85 1022.06 1021.31 1020.63 1020.05 1019.57 1019.16 1018.77 1018.35 1017.87 1017.30 1016.65 1015.94 1015.21 1014.51 1013.88 1013.37 1012.98 1012.73 1012.60 1012.56 1012.60 1012.68 1012.78 1012.88 1012.96 1013.03 1013.06 1013.05 1013.01 1012.94 1012.86 1012.78 1012.74 1012.75 1012.84 1013.01 1013.26
1026.53 1026.19 1025.70 1025.06 1024.29 1023.45 1022.61 1021.82 1021.13 1020.57 1020.11 1019.73 1019.35 1018.95 1018.46 1017.87 1017.19 1016.43 1015.65 1014.89 1014.19 1013.60 1013.12 1012.77 1012.53 1012.40 1012.34 1012.34 1012.38 1012.43 1012.50 1012.55 1012.58 1012.58 1012.54 1012.46 1012.37 1012.28 1012.22 1012.22 1012.30 1012.47 1012.73
1027.36 1026.98 1026.43 1025.72 1024.88 1023.98 1023.09 1022.27 1021.58 1021.02 1020.57 1020.19 1019.83 1019.42 1018.93 1018.34 1017.65 1016.88 1016.09 1015.30 1014.57 1013.92 1013.37 1012.92 1012.57 1012.31 1012.14 1012.03 1011.97 1011.96 1011.98 1012.00 1012.02 1012.02 1011.98 1011.91 1011.82 1011.72 1011.66 1011.65 1011.72 1011.89 1012.17
1028.08 1027.64 1027.04 1026.28 1025.40 1024.46 1023.55 1022.72 1022.02 1021.45 1020.99 1020.60 1020.22 1019.80 1019.30 1018.71 1018.03 1017.28 1016.50 1015.73 1014.99 1014.31 1013.70 1013.16 1012.70 1012.31 1012.00 1011.76 1011.59 1011.49 1011.44 1011.43 1011.43 1011.42 1011.40 1011.34 1011.25 1011.16 1011.10 1011.09 1011.16 1011.33 1011.60
1028.67 1028.19 1027.55 1026.76 1025.87 1024.94 1024.03 1023.21 1022.51 1021.92 1021.44 1021.01 1020.59 1020.13 1019.61 1019.01 1018.34 1017.62 1016.88 1016.13 1015.41 1014.72 1014.07 1013.45 1012.89 1012.37 1011.92 1011.55 1011.26 1011.06 1010.94 1010.89 1010.87 1010.87 1010.85 1010.81 1010.74 1010.67 1010.61 1010.59 1010.65 1010.81 1011.06
1029.15 1028.64 1027.99 1027.20 1026.34 1025.44 1024.57 1023.77 1023.07 1022.47 1021.95 1021.46 1020.97 1020.45 1019.88 1019.26 1018.59 1017.89 1017.18 1016.47 1015.77 1015.08 1014.40 1013.73 1013.07 1012.44 1011.87 1011.38 1010.98 1010.70 1010.52 1010.43 1010.40 1010.41 1010.41 1010.39 1010.34 1010.28 1010.23 1010.20 1010.24 1010.37 1010.58
1029.57 1029.04 1028.40 1027.65 1026.83 1025.99 1025.17 1024.41 1023.72 1023.10 1022.51 1021.95 1021.38 1020.77 1020.13 1019.46 1018.77 1018.08 1017.39 1016.71 1016.02 1015.33 1014.63 1013.91 1013.18 1012.47 1011.80 1011.22 1010.74 1010.39 1010.17 1010.06 1010.03 1010.06 1010.08 1010.10 1010.07 1010.03 1009.97 1009.93 1009.94 1010.02 1010.18
1029.98 1029.45 1028.83 1028.12 1027.37 1026.60 1025.84 1025.12 1024.43 1023.78 1023.13 1022.48 1021.80 1021.09 1020.36 1019.62 1018.88 1018.16 1017.47 1016.79 1016.10 1015.41 1014.68 1013.92 1013.15 1012.37 1011.65 1011.00 1010.48 1010.10 1009.87 1009.76 1009.75 1009.80 1009.87 1009.91 1009.91 1009.88 1009.82 1009.76 1009.73 1009.76 1009.86
1030.44 1029.92 1029.32 1028.67 1027.97 1027.25 1026.54 1025.85 1025.15 1024.46 1023.74 1022.99 1022.21 1021.39 1020.55 1019.72 1018.91 1018.14 1017.40 1016.69 1015.99 1015.27 1014.51 1013.72 1012.91 1012.11 1011.35 1010.69 1010.16 1009.78 1009.56 1009.48 1009.50 1009.59 1009.69 1009.77 1009.81 1009.79 1009.74 1009.66 1009.60 1009.58 1009.61
1030.97 1030.46 1029.89 1029.26 1028.60 1027.92 1027.24 1026.55 1025.84 1025.10 1024.31 1023.46 1022.57 1021.63 1020.69 1019.75 1018.85 1018.00 1017.20 1016.43 1015.68 1014.91 1014.12 1013.30 1012.46 1011.65 1010.89 1010.23 1009.72 1009.37 1009.18 1009.14 1009.21 1009.34 1009.49 1009.61 1009.68 1009.69 1009.66 1009.58 1009.51 1009.45 1009.43
1031.57 1031.07 1030.51 1029.89 1029.24 1028.57 1027.89 1027.18 1026.44 1025.64 1024.78 1023.85 1022.85 1021.81 1020.76 1019.72 1018.72 1017.78 1016.89 1016.04 1015.21 1014.38 1013.54 1012.68 1011.83 1011.01 1010.26 1009.63 1009.15 1008.83 1008.69 1008.69 1008.81 1008.99 1009.18 1009.36 1009.48 1009.54 1009.53 1009.49 1009.42 1009.36 1009.33
Thickness
5737 5739 5739 5739 5737 5735 5734 5733 5733 5733 5733 5732 5731 5731 5730 5730 5730 5730 5730 5731 5731 5732 5732 5732 5732 5732 5732 5733 5733 5733 5734 5734 5735 5735 5735 5735 5735 5734 5733 5732 5732 5733 5733
5736 5735 5734 5732 5730 5729 5728 5727 5727 5727 5727 5727 5726 5726 5725 5725 5725 5725 5725 5726 5727 5728 5728 5729 5729 5730 5730 5730 5730 5730 5730 5730 5731 5731 5731 5732 5732 5731 5731 5730 5729 5730 5730
5730 5729 5727 5725 5724 5723 5722 5721 5721 5721 5720 5720 5720 5720 5720 5720 5720 5720 5720 5721 5722 5723 5724 5725 5726 5727 5727 5726 5726 5726 5726 5726 5727 5727 5727 5727 5728 5728 5727 5727 5727 5727 5728
5722 5721 5720 5719 5718 5717 5717 5716 5715 5715 5714 5714 5714 5714 5713 5713 5714 5715 5716 5716 5717 5718 5719 5720 5722 5722 5723 5723 5722 5722 5722 5722 5723 5723 5723 5723 5724 5724 5723 5723 5723 5724 5724
5715 5714 5713 5712 5712 5711 5711 5710 5710 5709 5709 5708 5708 5708 5708 5708 5708 5710 5710 5711 5712 5713 5714 5715 5716 5717 5718 5719 5718 5718 5718 5718 5718 5719 5719 5720 5720 5720 5720 5719 5719 5719 5720
5706 5706 5706 5706 5705 5705 5705 5704 5703 5703 5703 5703 5703 5703 5703 5703 5703 5704 5705 5706 5706 5707 5709 5710 5711 5712 5712 5713 5713 5713 5713 5713 5714 5714 5715 5716 5716 5717 5716 5715 5715 5715 5716
5696 5697 5697 5698 5699 5699 5699 5699 5699 5698 5698 5697 5698 5698 5698 5698 5698 5699 5699 5700 5700 5701 5702 5703 5704 5705 5706 5707 5707 5707 5707 5708 5709 5709 5710 5711 5713 5714 5713 5711 5711 5711 5712
5683 5683 5684 5686 5688 5690 5691 5691 5691 5691 5690 5690 5691 5691 5692 5692 5692 5693 5693 5693 5694 5694 5695 5696 5697 5699 5699 5701 5701 5702 5702 5703 5705 5705 5705 5707 5709 5710 5710 5709 5708 5708 5708
5669 5669 5669 5671 5674 5677 5679 5680 5681 5681 5681 5681 5682 5683 5683 5684 5685 5686 5686 5687 5687 5688 5688 5689 5690 5691 5693 5694 5695 5697 5697 5698 5699 5701 5701 5702 5704 5705 5706 5706 5705 5705 5704
5655 5654 5654 5656 5659 5662 5666 5667 5669 5669 5670 5671 5672 5673 5674 5675 5677 5678 5678 5679 5680 5680 5681 5682 5682 5684 5685 5687 5689 5690 5692 5693 5694 5695 5696 5697 5698 5699 5701 5702 5702 5702 5701
5640 5639 5639 5641 5643 5646 5649 5650 5653 5655 5656 5659 5661 5664 5665 5666 5667 5669 5670 5671 5671 5673 5674 5675 5676 5676 5678 5680 5681 5683 5685 5687 5688 5690 5691 5692 5693 5695 5696 5697 5698 5699 5699
5622 5624 5624 5626 5627 5629 5631 5633 5635 5637 5639 5642 5645 5649 5653 5655 5657 5659 5661 5662 5663 5664 5665 5667 5668 5669 5670 5672 5674 5676 5678 5680 5681 5683 5685 5687 5688 5689 5691 5693 5694 5695 5696
5605 5608 5609 5610 5611 5613 5614 5616 5617 5619 5621 5624 5628 5632 5637 5642 5645 5649 5651 5653 5654 5655 5657 5659 5660 5661 5662 5664 5666 5668 5670 5672 5675 5677 5679 5681 5683 5684 5686 5689 5691 5692 5693
5593 5593 5594 5595 5596 5596 5598 5599 5600 5602 5604 5605 5608 5613 5618 5623 5629 5634 5639 5643 5645 5646 5648 5650 5652 5653 5654 5656 5658 5660 5663 5665 5667 5670 5673 5676 5678 5679 5682 5685 5687 5689 5690
5579 5578 5578 5579 5579 5579 5581 5582 5583 5585 5587 5588 5591 5595 5598 5603 5609 5616 5622 5628 5633 5636 5638 5640 5642 5644 5646 5648 5651 5653 5656 5659 5661 5663 5666 5670 5673 5675 5678 5681 5683 5685 5687
5564 5563 5563 5564 5562 5563 5564 5564 5566 5567 5569 5572 5574 5577 5580 5584 5589 5596 5604 5611 5616 5621 5626 5630 5632 5634 5637 5639 5642 5646 5649 5652 5655 5657 5660 5664 5668 5671 5673 5677 5680 5682 5683
5546 5546 5546 5548 5546 5546 5547 5548 5549 5550 5551 5553 5556 5558 5561 5565 5570 5576 5584 5592 5598 5604 5611 5617 5621 5624 5626 5629 5633 5637 5641 5645 5648 5652 5655 5658 5662 5666 5669 5672 5675 5677 5678
5530 5528 5527 5527 5528 5528 5529 5530 5531 5532 5534 5535 5537 5540 5543 5546 5550 5556 5563 5571 5579 5587 5595 5602 5608 5612 5616 5619 5623 5628 5632 5637 5641 5645 5649 5652 5656 5660 5664 5667 5669 5671 5672
5513 5510 5509 5508 5507 5508 5508 5509 5510 5513 5514 5516 5518 5521 5524 5527 5531 5535 5542 5550 5559 5569 5578 5585 5593 5599 5604 5609 5613 5618 5622 5628 5633 5637 5641 5646 5649 5653 5657 5661 5663 5665 5666
5492 5489 5487 5485 5484 5485 5486 5487 5488 5490 5492 5495 5497 5500 5503 5508 5511 5515 5523 5529 5538 5549 5559 5567 5575 5584 5591 5596 5601 5606 5612 5617 5623 5627 5632 5637 5642 5646 5649 5653 5656 5659 5661
5471 5465 5461 5457 5456 5455 5456 5457 5460 5464 5468 5471 5474 5476 5479 5484 5490 5495 5502 5510 5517 5527 5537 5547 5556 5567 5576 5581 5585 5592 5598 5604 5611 5616 5621 5626 5632 5637 5641 5644 5648 5651 5654
5445 5437 5431 5424 5422 5419 5418 5420 5423 5429 5435 5441 5446 5451 5453 5458 5464 5472 5478 5486 5495 5506 5518 5528 5536 5547 5560 5565 5570 5574 5581 5589 5598 5604 5608 5614 5620 5626 5630 5635 5638 5642 5645
5415 5405 5397 5390 5386 5384 5382 5385 5389 5395 5401 5406 5413 5420 5425 5430 5437 5445 5453 5462 5472 5482 5495 5506 5515 5526 5539 5549 5556 5560 5565 5576 5582 5587 5593 5600 5606 5612 5618 5623 5628 5632 5635
5387 5378 5371 5364 5359 5353 5349 5349 5350 5355 5361 5366 5375 5385 5394 5401 5410 5419 5428 5438 5449 5459 5471 5483 5496 5505 5516 5530 5539 5546 5554 5561 5565 5572 5576 5582 5589 5596 5603 5609 5615 5621 5624
5361 5355 5349 5344 5339 5332 5327 5324 5324 5324 5327 5333 5343 5355 5367 5377 5385 5395 5406 5418 5428 5438 5448 5459 5472 5484 5496 5509 5520 5527 5532 5538 5548 5555 5559 5565 5570 5577 5585 5593 5600 5606 5612
5344 5337 5332 5329 5324 5318 5313 5310 5308 5308 5310 5314 5321 5332 5344 5356 5367 5377 5388 5400 5410 5420 5428 5437 5448 5461 5475 5489 5500 5507 5515 5522 5529 5536 5541 5546 5552 5559 5566 5574 5582 5590 5596